FW6490 Weather Reports


time (UTC)temp
C
wind
direction
speed
KPH
gust
KPH
rain 1hr
cm
rain 24hr
cm
rain mn
cm
humidity
%
barometer
mb
20260505001924 18 344 8.0 20.9 0.00 0.00 0.00 63 1009.5
20260505001423 18 321 9.7 20.9 0.00 0.00 0.00 63 1009.5
20260505000922 18 321 8.0 19.3 0.00 0.00 0.00 62 1009.7
20260505000424 18 305 8.0 16.1 0.00 0.00 0.00 61 1009.7
20260504235921 18 328 8.0 16.1 0.00 0.00 0.00 60 1009.7
20260504234416 18 290 6.4 14.5 0.00 0.00 0.00 63 1009.7
20260504233921 18 308 6.4 14.5 0.00 0.00 0.00 64 1009.7
20260504233414 18 337 6.4 17.7 0.00 0.00 0.00 65 1009.7
20260504232913 18 304 8.0 17.7 0.00 0.00 0.00 67 1009.7
20260504231911 17 303 6.4 17.7 0.00 0.00 0.00 67 1009.8
20260504231409 17 302 6.4 17.7 0.00 0.00 0.00 66 1009.7
20260504230907 16 311 6.4 19.3 0.00 0.00 0.00 68 1009.5
20260504230405 16 294 6.4 19.3 0.00 0.00 0.00 67 1009.5
20260504225402 17 318 6.4 16.1 0.00 0.00 0.00 66 1009.6
20260504224859 17 287 6.4 16.1 0.00 0.00 0.00 65 1009.6
20260504224400 17 322 6.4 14.5 0.00 0.00 0.00 63 1009.8
20260504223856 18 277 6.4 14.5 0.00 0.00 0.00 63 1009.8
20260504223356 18 355 8.0 19.3 0.00 0.00 0.00 63 1009.8
20260504222854 18 319 6.4 19.3 0.00 0.00 0.00 62 1009.9
20260504222353 18 323 8.0 19.3 0.00 0.00 0.00 62 1009.9
20260504221853 18 288 8.0 19.3 0.00 0.00 0.00 63 1009.9
20260504221353 18 325 8.0 20.9 0.00 0.00 0.00 63 1010.0
20260504220851 19 315 8.0 20.9 0.00 0.00 0.00 63 1010.0
20260504220352 19 325 8.0 14.5 0.00 0.00 0.00 63 1010.0
20260504215850 19 339 6.4 16.1 0.00 0.00 0.00 61 1010.1
20260504215349 20 344 6.4 16.1 0.00 0.00 0.00 60 1010.1
20260504214854 20 338 8.0 16.1 0.00 0.00 0.00 60 1010.1
20260504214350 20 328 8.0 16.1 0.00 0.00 0.00 59 1010.3
20260504213847 20 348 8.0 16.1 0.00 0.00 0.00 59 1010.3
20260504213346 20 334 8.0 16.1 0.00 0.00 0.00 58 1010.3
20260504212848 20 328 6.4 16.1 0.00 0.00 0.00 58 1010.3
20260504212347 20 336 8.0 16.1 0.00 0.00 0.00 58 1010.3
20260504211846 19 319 8.0 17.7 0.00 0.00 0.00 60 1010.3
20260504211348 18 279 8.0 17.7 0.00 0.00 0.00 61 1010.3
20260504210844 18 327 6.4 16.1 0.00 0.00 0.00 62 1010.3
20260504205836 17 311 6.4 11.3 0.00 0.00 0.00 62 1010.2
20260504205342 17 266 6.4 14.5 0.00 0.00 0.00 61 1010.2
20260504204840 18 264 6.4 14.5 0.00 0.00 0.00 60 1010.3
20260504204334 18 316 6.4 14.5 0.00 0.00 0.00 59 1010.2
20260504203831 18 312 6.4 14.5 0.00 0.00 0.00 59 1010.2
20260504203330 18 312 6.4 20.9 0.00 0.00 0.00 60 1010.2
20260504202830 18 262 6.4 20.9 0.00 0.00 0.00 59 1010.2
20260504201829 17 313 4.8 11.3 0.00 0.00 0.00 61 1010.1
20260504201329 17 337 4.8 11.3 0.00 0.00 0.00 61 1010.2
20260504200828 17 309 4.8 12.9 0.00 0.00 0.00 61 1010.2
20260504195322 17 263 3.2 14.5 0.00 0.00 0.00 64 1010.1
20260504194819 17 290 4.8 14.5 0.00 0.00 0.00 65 1010.1
20260504194318 17 281 6.4 14.5 0.00 0.00 0.00 64 1010.1
20260504193816 17 299 4.8 9.7 0.00 0.00 0.00 65 1010.1
20260504192816 17 270 8.0 17.7 0.00 0.00 0.00 66 1010.0
20260504191816 17 296 6.4 16.1 0.00 0.00 0.00 66 1010.0
20260504191317 16 324 4.8 11.3 0.00 0.00 0.00 68 1010.2
20260504190817 16 300 4.8 9.7 0.00 0.00 0.00 67 1010.2
20260504190315 16 327 6.4 12.9 0.00 0.00 0.00 66 1010.2
20260504185809 16 290 6.4 12.9 0.00 0.00 0.00 66 1010.1
20260504185311 16 269 6.4 14.5 0.00 0.00 0.00 65 1010.1
20260504184812 16 281 4.8 14.5 0.00 0.00 0.00 64 1010.1
20260504184307 17 281 4.8 11.3 0.00 0.00 0.00 62 1010.1
20260504183804 17 281 6.4 12.9 0.00 0.00 0.00 61 1010.1
20260504183306 18 314 4.8 12.9 0.00 0.00 0.00 58 1010.2
20260504182808 18 46 1.6 8.0 0.00 0.00 0.00 57 1010.2
20260504182306 18 73 3.2 8.0 0.00 0.00 0.00 56 1010.2
20260504181302 19 55 3.2 8.0 0.00 0.00 0.00 55 1010.3
20260504180259 18 333 3.2 8.0 0.00 0.00 0.00 59 1010.3
20260504175756 18 318 3.2 11.3 0.00 0.00 0.00 60 1010.3
20260504175256 18 318 3.2 11.3 0.00 0.00 0.00 61 1010.3
20260504174756 17 300 3.2 9.7 0.00 0.00 0.00 63 1010.2
20260504174251 17 296 1.6 9.7 0.00 0.00 0.00 64 1010.2
20260504173750 17 296 0.0 6.4 0.00 0.00 0.00 65 1010.2
20260504173250 16 296 1.6 9.7 0.00 0.00 0.00 65 1010.2
20260504172749 16 296 1.6 9.7 0.00 0.00 0.00 65 1010.2
20260504172247 16 296 1.6 6.4 0.00 0.00 0.00 64 1010.2
20260504171747 16 296 3.2 9.7 0.00 0.00 0.00 66 1010.2
20260504171252 16 296 3.2 9.7 0.00 0.00 0.00 64 1010.2
20260504170745 17 331 3.2 8.0 0.00 0.00 0.00 66 1010.2
20260504170243 17 319 3.2 8.0 0.00 0.00 0.00 64 1010.2
20260504160223 15 124 0.0 3.2 0.00 0.00 0.00 74 1010.2
20260504150700 11 292 0.0 0.0 0.00 0.00 0.00 90 1010.0
20260504150158 11 292 0.0 0.0 0.00 0.00 0.00 91 1010.0
20260504141139 9 276 0.0 0.0 0.00 0.00 0.00 94 1009.6
20260504140640 9 276 0.0 0.0 0.00 0.00 0.00 94 1009.6
20260504140139 8 276 0.0 0.0 0.00 0.00 0.00 95 1009.5
20260504130604 8 278 0.0 0.0 0.00 0.00 0.00 93 1009.4
20260504110517 9 278 0.0 0.0 0.00 0.00 0.00 94 1009.7
20260504100454 8 278 0.0 4.8 0.00 0.00 0.00 93 1009.6
20260504081913 8 278 0.0 0.0 0.00 0.00 0.00 91 1010.3
20260504081412 8 278 0.0 0.0 0.00 0.00 0.00 91 1010.3
20260504080908 8 278 0.0 0.0 0.00 0.00 0.00 91 1010.3
20260504080407 8 278 0.0 0.0 0.00 0.00 0.00 91 1010.3
20260504070342 8 278 0.0 0.0 0.00 0.00 0.00 90 1010.4
20260504050248 11 278 0.0 0.0 0.00 0.00 0.00 85 1010.2
20260504045745 11 278 0.0 0.0 0.00 0.00 0.00 85 1010.0
20260504045245 11 278 0.0 0.0 0.00 0.00 0.00 85 1010.0
20260504043738 11 278 0.0 4.8 0.00 0.00 0.00 85 1010.0
20260504043230 11 278 1.6 4.8 0.00 0.00 0.00 85 1010.0
20260504042728 11 278 1.6 4.8 0.00 0.00 0.00 84 1009.7
20260504042228 11 278 1.6 3.2 0.00 0.00 0.00 84 1009.7
20260504041725 11 278 1.6 3.2 0.00 0.00 0.00 84 1009.7
20260504041220 11 278 0.0 3.2 0.00 0.00 0.00 83 1009.5
20260504040719 11 278 1.6 3.2 0.00 0.00 0.00 83 1009.5
20260504040215 11 278 1.6 3.2 0.00 0.00 0.00 82 1009.5
20260504034710 12 278 1.6 6.4 0.00 0.00 0.00 79 1009.5
20260504034205 12 278 1.6 6.4 0.00 0.00 0.00 78 1009.3
20260504033704 12 278 0.0 1.6 0.00 0.00 0.00 78 1009.3
20260504032200 13 278 0.0 3.2 0.00 0.00 0.00 76 1009.2
20260504031658 13 278 1.6 4.8 0.00 0.00 0.00 76 1009.2
20260504031157 13 278 3.2 4.8 0.00 0.00 0.00 76 1009.1
20260504030657 13 278 3.2 4.8 0.00 0.00 0.00 75 1009.1
20260504030156 13 278 1.6 6.4 0.00 0.00 0.00 75 1009.1
20260504025652 13 279 1.6 6.4 0.00 0.00 0.00 75 1009.0
20260504024148 14 279 1.6 4.8 0.00 0.00 0.00 73 1009.0
20260504023648 14 279 1.6 9.7 0.00 0.00 0.00 72 1009.0
20260504023143 15 279 1.6 9.7 0.00 0.00 0.00 71 1009.0
20260504022642 15 278 1.6 11.3 0.00 0.00 0.00 70 1008.7
20260504022140 15 282 1.6 11.3 0.00 0.00 0.00 68 1008.7
20260504021638 16 326 1.6 6.4 0.00 0.00 0.00 67 1008.7
20260504020636 16 288 1.6 4.8 0.00 0.00 0.00 65 1008.5
20260504020131 16 286 1.6 4.8 0.00 0.00 0.00 65 1008.5
20260504015629 16 285 3.2 9.7 0.00 0.00 0.00 64 1008.5
20260504014123 17 320 3.2 11.3 0.00 0.00 0.00 62 1008.5
20260504013624 17 320 3.2 11.3 0.00 0.00 0.00 62 1008.5
20260504013126 17 302 3.2 12.9 0.00 0.00 0.00 62 1008.5
20260504012118 17 279 4.8 14.5 0.00 0.00 0.00 62 1008.4
20260504011618 17 275 6.4 14.5 0.00 0.00 0.00 61 1008.4
20260504011116 17 346 6.4 17.7 0.00 0.00 0.00 61 1008.4
20260504010117 17 250 8.0 19.3 0.00 0.00 0.00 60 1008.4
20260504005616 17 303 8.0 17.7 0.00 0.00 0.00 60 1008.2
20260504005119 17 297 8.0 17.7 0.00 0.00 0.00 59 1008.2
20260504004623 17 277 6.4 16.1 0.00 0.00 0.00 60 1008.3
20260504004113 17 269 6.4 19.3 0.00 0.00 0.00 60 1008.1
20260504003612 17 303 8.0 19.3 0.00 0.00 0.00 60 1008.1
20260504003108 17 315 9.7 17.7 0.00 0.00 0.00 60 1008.1
20260504002604 17 306 8.0 16.1 0.00 0.00 0.00 59 1008.1